Ralph Wien Memorial Airport
PAOT : now visible

Airfield :











YOU CAN JOIN US ON...

 
LOGIN :

Register | Disclaimer

   EN    FR    IT 

 









Legend :    VFR   Marginal VFR   IFR   Intensive IFR   Very Intensive IFR
Visi :
Ceiling :
>= 8 km
>= 3000ft
5 to 8 km
1000 to 3000 ft
1500m to 5 km
500 to 1000 ft
800 to 1500m
200 to 500 ft
< 800m
< 200 ft
Symbols :   Thunderstorms  Fog  Heavy snow  Heavy precipitations  Wind > 20 kt






- Airport Elevation : 14 ft
- IATA code : OTZ


PAOT - Ralph Wien Memorial

CURRENT METAR :
  • 010653Z 24010KT 10SM BKN047 OVC060 11/08 A2971 RMK AO2 SLP059 T01110078 $

EXPIRED METARs :
  • 010553Z 21009KT 10SM BKN050 OVC080 12/08 A2968 RMK AO2 SLP051 T01170078 10128 20117 51029 $
  • 010453Z 20009KT 10SM FEW035 12/08 A2965 RMK AO2 SLP042 T01170083 $

TAF PAOT
Valid from the 01 at 06:00 until the 02 at 06:00 UTC


010539Z 0106/0206 20011KT P6SM FEW040 BKN060
FM012000 10008KT P6SM -RA BKN015 OVC025
PAZA FIR / North America



MET'MAP, your aeronautical weather chart ! - Copyright ORBIFLY December 2007 - Disclaimer

ORBIFLY MET'MAP TEAM :

Programming & Development : Alexandra Zaïnal
Concept & original design : Baudouin d'Aumeries
Assistance for programming : Marc-Olivier Méhu
Technical & hardware support : Manuel Goepfert

Contact : metmap@orbifly.com




SOURCES & CREDITS :

   NOAA       Earth
Advisory